Loisir ou Compétition : Rejoignez un Club de la Fédération

Résultats

TROPHEE DU BEAUFORT ETAPE 3 CHAMPIONNAT DE SAVOIE TROPHEE BANQUE POPULAIRE DES ALPES

CHAMPAGNY

FS Dames

Jury de Compétition

Délégué Technique :
REMY PATRICK (SA)
D.T. Adjoint :
PERROT FRANCK (SA)
Dir. Epreuve :
SOUVY BENOIT (SA)

Caractéristiques de la Piste

Piste :
SITE NORD CHAMPAGNY LE HAUT
Distance :
3.5 km
Point Haut :
 
Point Bas :
 
Montée Tot. :
 
Montée Max. :
 
Homologation :
2013.47.1

Pénalité Appliquée :
 
Coefficient :
 

Catégorie :
U14
Style :
C
Clt Dos Clt/Cat Code An Nom Prénom Com Club Temps Ecart Points
Classés
1 305 1/U14 FFS2644719 2002 RICHON CAPUCINE SA CS LA FECLAZ 12:29.6 00:00.0
2 291 2/U14 FFS2665303 2002 MICHELON OCEANE SA BAUGES S.N 12:49.7 00:20.1
3 286 3/U14 FFS2655903 2002 BERTRAND FANY SA SC MERIBEL 13:18.8 00:49.2
4 295 4/U14 FFS2660732 2003 COUPAT LIV FZ BESSAT S HIV 13:19.3 00:49.7
5 301 5/U14 FFS2666812 2002 TAFFIN NINA SA SC PEISEY VA 13:28.8 00:59.2
6 318 6/U14 FFS2659648 2003 SARRAT MANON SA SC BOZEL 13:38.5 01:08.9
7 296 7/U14 FFS2665310 2002 MUNIER ELODIE SA MONOLITHE SF 13:41.6 01:12.0
8 319 8/U14 FFS2648985 2002 MANCINI CHARLOTTE SA CN REVARD 13:44.9 01:15.3
9 314 9/U14 FFS2665301 2002 RAMAZ ADELAIDE SA BAUGES S.N 13:46.8 01:17.2
10 299 10/U14 FFS2665858 2002 SABATELLI CARLA SA CS LA FECLAZ 14:02.2 01:32.6
11 302 11/U14 FFS2665311 2002 VIGNOL MANON SA MONOLITHE SF 14:06.5 01:36.9
12 315 12/U14 FFS2663450 2002 GRISNAUX YSALINE SA SC MENUIRES 14:13.2 01:43.6
13 290 13/U14 FFS2654445 2003 SOUVY LOU ANNE SA SC BOZEL 14:15.8 01:46.2
14 284 14/U14 FFS2665168 2003 RAOULT ZOE SA SC BOZEL 14:20.2 01:50.6
15 281 15/U14 FFS2669082 2002 ELOY LILOU SA COURCHEVEL 14:21.9 01:52.3
16 300 16/U14 FFS2670449 2003 BROUTIER AMELIE SA BAUGES S.N 14:29.0 01:59.4
17 316 17/U14 FFS2670561 2002 MATHE MARCELLINE SA CS LA FECLAZ 14:36.1 02:06.5
18 285 18/U14 FFS2668375 2002 DUNAND JULIANE SA SC BOZEL 14:38.5 02:08.9
19 307 19/U14 FFS2654373 2003 LAMBERT TALIA SA SC MERIBEL 15:04.6 02:35.0
20 306 20/U14 FFS2651686 2003 NUNEZ THALYA SA COURCHEVEL 15:07.6 02:38.0
21 309 21/U14 FFS2664891 2002 BELLON MARGAUX SA SC BOZEL 15:22.3 02:52.7
22 311 22/U14 FFS2657041 2003 JAY CLOE SA SC MENUIRES 15:25.0 02:55.4
23 313 23/U14 FFS2670594 2003 CAVORET LILOU SA CS LA FECLAZ 15:32.5 03:02.9
24 304 24/U14 FFS2670453 2003 LANCHAIS MANON SA CS LA FECLAZ 15:41.0 03:11.4
25 297 25/U14 FFS2670595 2003 COURTIEU MARGOT SA CS LA FECLAZ 15:47.4 03:17.8
26 310 26/U14 FFS2666104 2003 RADIC JULIET SA SC ARECHES 15:53.7 03:24.1
27 321 27/U14 FFS2654963 2002 FANTIN LAURA SA CN REVARD 16:04.6 03:35.0
28 287 28/U14 FFS2665861 2002 SERAFIN BEAUTE AMANDINE SA CS LA FECLAZ 16:05.7 03:36.1
29 320 29/U14 FFS2665635 2003 CATELLA CLARA SA SC MERIBEL 16:06.7 03:37.1
30 303 30/U14 FFS2666103 2003 GERARD GESLIN MAILIS SA SC ARECHES 16:13.2 03:43.6
31 325 31/U14 FFS2657793 2003 ZANELLATO ELODIE SA CS VAL CENIS 16:17.6 03:48.0
32 289 32/U14 FFS2661315 2003 NAUCHE ELIANE SA CS LA FECLAZ 16:41.9 04:12.3
33 323 33/U14 FFS2665192 2003 POIROT CAMILLE SA CN REVARD 16:52.1 04:22.5
34 312 34/U14 FFS2670608 2003 VALETTE LAURE SA CS LA FECLAZ 17:10.1 04:40.5
35 288 35/U14 FFS2661796 2002 CONSTANT ELISE SA SC ARECHES 17:13.5 04:43.9
36 324 36/U14 FFS2676049 2003 MONARQUE PAULINE SA CS LA FECLAZ 17:18.5 04:48.9
37 292 37/U14 FFS2670448 2003 SUIFFET JUSTINE SA BAUGES S.N 17:20.5 04:50.9
38 308 38/U14 FFS2663983 2003 VOLLUET EMILIE SA CS LA FECLAZ 17:28.1 04:58.5
39 293 39/U14 FFS2650076 2002 BOURGEOIS MARIE SA CS VAL CENIS 17:29.7 05:00.1
40 317 40/U14 FFS2665791 2003 SAUSSAC MONTENE SA CN REVARD 18:05.0 05:35.4
41 322 41/U14 FFS2660784 2003 LAURENT FLAVIE SA CS KARELLIS 18:46.6 06:17.0
42 282 42/U14 FFS2664109 2002 DONAZZOLO AGATHE SA CS KARELLIS 19:22.2 06:52.6
Disqualifiés
283 FFS2659138 2003 POIROT LENNA MV LA BRESSAUDE
Non partants
294 FFS2670603 2003 RAT PATRON CAMILLE SA CS LA FECLAZ
298 FFS2653461 2003 VIAL PASCALINE SA CS LA FECLAZ